Weather History for Henderson, KY

Change the Weather History Date:

Tuesday, February 19, 2013

  Actual Average Record
Temperature  
Mean Temperature 34 °F -  
Max Temperature 41 °F 49 °F 73 °F (1948)
Min Temperature 26 °F 29 °F -2 °F (1936)
Degree Days  
Heating Degree Days 32    
Moisture  
Dew Point 18 °F    
Average Humidity 52    
Maximum Humidity 70    
Minimum Humidity 41    
Precipitation  
Precipitation 0.00 in - - ()
Sea Level Pressure  
Sea Level Pressure 30.08 in    
Wind  
Wind Speed 17 mph (WNW)    
Max Wind Speed 24 mph    
Max Gust Speed 34 mph    
Visibility 10 miles    
Events      
Averages and records for this station are not official NWS values.
T = Trace of Precipitation, MM = Missing Value Source: NWS Daily Summary

Daily Weather History Graph

Daily Weather History Graph

Search for Another Location

Airport:

Trip Planner

Search our weather history database for the weather conditions in past years. The results will help you decide how hot, cold, wet, or windy it might be!

Date:

Astronomy

Feb. 19, 2013 Rise Set
Actual Time 6:35 AM CST 5:34 PM CST
Civil Twilight 6:08 AM CST 6:01 PM CST
Nautical Twilight 5:37 AM CST 6:31 PM CST
Astronomical Twilight 5:07 AM CST 7:02 PM CST
Moon 12:08 PM CST (2/19) 2:03 AM CST (2/19)
Length of Visible Light 11h 52m
Length of Day
10h 59m
Waxing Gibbous, 67% of the Moon is Illuminated
Feb 19
Waxing Gibbous
Feb 25
Full
Mar 4
Last Quarter
Mar 11
New
Mar 19
First Quarter

Hourly Weather History & Observations

Time (CST) Temp. Windchill Dew Point Humidity Pressure Visibility Wind Dir Wind Speed Gust Speed Precip Events Conditions
12:15 AM 41.0 °F 31.6 °F 30.2 °F 65% 29.82 in 10.0 mi NW 20.7 mph 26.5 mph N/A   Overcast
12:35 AM 39.2 °F 30.2 °F 30.2 °F 70% 29.83 in 10.0 mi NW 17.3 mph 26.5 mph N/A   Overcast
12:55 AM 39.2 °F 28.5 °F 30.2 °F 70% 29.85 in 10.0 mi WNW 24.2 mph 28.8 mph N/A   Overcast
1:15 AM 39.2 °F 30.8 °F 28.4 °F 65% 29.86 in 10.0 mi WNW 15.0 mph 23.0 mph N/A   Overcast
1:35 AM 39.2 °F 29.8 °F 30.2 °F 70% 29.86 in 10.0 mi WNW 18.4 mph 25.3 mph N/A   Overcast
2:15 AM 39.2 °F 29.3 °F 28.4 °F 65% 29.89 in 10.0 mi WNW 20.7 mph 31.1 mph N/A   Overcast
2:35 AM 37.4 °F 26.9 °F 24.8 °F 60% 29.90 in 10.0 mi WNW 20.7 mph 27.6 mph N/A   Overcast
2:55 AM 35.6 °F 24.0 °F 24.8 °F 65% 29.92 in 10.0 mi WNW 23.0 mph 34.5 mph N/A   Overcast
3:15 AM 35.6 °F 24.5 °F 23.0 °F 60% 29.92 in 10.0 mi WNW 20.7 mph 28.8 mph N/A   Overcast
3:35 AM 35.6 °F 25.9 °F 23.0 °F 60% 29.92 in 10.0 mi WNW 16.1 mph 21.9 mph N/A   Overcast
3:55 AM 35.6 °F 25.5 °F 23.0 °F 60% 29.93 in 10.0 mi West 17.3 mph - N/A   Overcast
4:15 AM 33.8 °F 21.9 °F 19.4 °F 56% 29.94 in 10.0 mi West 21.9 mph 31.1 mph N/A   Mostly Cloudy
4:35 AM 33.8 °F 22.5 °F 19.4 °F 56% 29.95 in 10.0 mi WNW 19.6 mph 25.3 mph N/A   Partly Cloudy
4:55 AM 33.8 °F 24.8 °F 19.4 °F 56% 29.96 in 10.0 mi West 12.7 mph - N/A   Scattered Clouds
5:15 AM 32.0 °F 23.6 °F 19.4 °F 60% 29.97 in 10.0 mi West 10.4 mph - N/A   Mostly Cloudy
5:55 AM 32.0 °F 22.1 °F 19.4 °F 60% 29.98 in 10.0 mi West 13.8 mph - N/A   Mostly Cloudy
6:15 AM 32.0 °F 23.0 °F 17.6 °F 55% 29.99 in 10.0 mi West 11.5 mph 18.4 mph N/A   Mostly Cloudy
6:35 AM 32.0 °F 20.8 °F 17.6 °F 55% 30.00 in 10.0 mi West 17.3 mph 27.6 mph N/A   Mostly Cloudy
6:55 AM 30.2 °F 18.9 °F 17.6 °F 60% 30.01 in 10.0 mi West 16.1 mph - N/A   Scattered Clouds
7:15 AM 30.2 °F 18.1 °F 17.6 °F 60% 30.02 in 10.0 mi West 18.4 mph 24.2 mph N/A   Mostly Cloudy
7:35 AM 30.2 °F 18.9 °F 17.6 °F 60% 30.03 in 10.0 mi West 16.1 mph 26.5 mph N/A   Partly Cloudy
7:55 AM 32.0 °F 21.2 °F 17.6 °F 55% 30.04 in 10.0 mi West 16.1 mph 23.0 mph N/A   Clear
8:15 AM 32.0 °F 20.1 °F 17.6 °F 55% 30.05 in 10.0 mi West 19.6 mph 24.2 mph N/A   Partly Cloudy
8:55 AM 33.8 °F 23.5 °F 19.4 °F 56% 30.06 in 10.0 mi West 16.1 mph - N/A   Scattered Clouds
9:35 AM 33.8 °F 22.8 °F 17.6 °F 52% 30.07 in 10.0 mi West 18.4 mph 24.2 mph N/A   Mostly Cloudy
9:55 AM 35.6 °F 25.2 °F 17.6 °F 48% 30.07 in 10.0 mi West 18.4 mph 25.3 mph N/A   Mostly Cloudy
10:15 AM 35.6 °F 25.5 °F 19.4 °F 52% 30.08 in 10.0 mi West 17.3 mph 25.3 mph N/A   Mostly Cloudy
10:35 AM 35.6 °F 24.8 °F 19.4 °F 52% 30.08 in 10.0 mi West 19.6 mph 24.2 mph N/A   Mostly Cloudy
11:15 AM 35.6 °F 24.0 °F 19.4 °F 52% 30.10 in 10.0 mi West 23.0 mph 28.8 mph N/A   Scattered Clouds
11:35 AM 37.4 °F 26.6 °F 17.6 °F 45% 30.10 in 10.0 mi WNW 21.9 mph 29.9 mph N/A   Partly Cloudy
12:15 PM 37.4 °F 27.8 °F 19.4 °F 48% 30.10 in 10.0 mi West 17.3 mph 26.5 mph N/A   Partly Cloudy
12:55 PM 37.4 °F 27.8 °F 19.4 °F 48% 30.10 in 10.0 mi West 17.3 mph 24.2 mph N/A   Partly Cloudy
1:15 PM 39.2 °F 29.6 °F 19.4 °F 45% 30.10 in 10.0 mi WNW 19.6 mph 29.9 mph N/A   Partly Cloudy
1:35 PM 39.2 °F 30.2 °F 19.4 °F 45% 30.10 in 10.0 mi West 17.3 mph 26.5 mph N/A   Partly Cloudy
1:55 PM 39.2 °F 29.0 °F 19.4 °F 45% 30.10 in 10.0 mi West 21.9 mph 29.9 mph N/A   Partly Cloudy
2:15 PM 39.2 °F 29.6 °F 19.4 °F 45% 30.11 in 10.0 mi West 19.6 mph 25.3 mph N/A   Clear
2:35 PM 39.2 °F 29.8 °F 17.6 °F 42% 30.12 in 10.0 mi West 18.4 mph 27.6 mph N/A   Clear
2:55 PM 39.2 °F 29.6 °F 17.6 °F 42% 30.12 in 10.0 mi West 19.6 mph 31.1 mph N/A   Clear
3:15 PM 39.2 °F 30.5 °F 19.4 °F 45% 30.13 in 10.0 mi WNW 16.1 mph 25.3 mph N/A   Clear
3:35 PM 37.4 °F 28.2 °F 17.6 °F 45% 30.14 in 10.0 mi West 16.1 mph 26.5 mph N/A   Clear
3:55 PM 37.4 °F 27.8 °F 17.6 °F 45% 30.14 in 10.0 mi West 17.3 mph 26.5 mph N/A   Clear
4:35 PM 37.4 °F 27.2 °F 17.6 °F 45% 30.15 in 10.0 mi West 19.6 mph - N/A   Clear
4:55 PM 37.4 °F 27.5 °F 15.8 °F 41% 30.15 in 10.0 mi West 18.4 mph - N/A   Clear
5:15 PM 37.4 °F 29.3 °F 15.8 °F 41% 30.16 in 10.0 mi WNW 12.7 mph 20.7 mph N/A   Clear
6:35 PM 33.8 °F 25.3 °F 14.0 °F 44% 30.19 in 10.0 mi WNW 11.5 mph - N/A   Clear
6:55 PM 33.8 °F 25.8 °F 15.8 °F 48% 30.19 in 10.0 mi NNW 10.4 mph - N/A   Clear
7:15 PM 32.0 °F 24.8 °F 14.0 °F 48% 30.20 in 10.0 mi NNW 8.1 mph - N/A   Clear
7:35 PM 30.2 °F 21.3 °F 12.2 °F 47% 30.20 in 10.0 mi NNW 10.4 mph 16.1 mph N/A   Clear
7:55 PM 30.2 °F 20.8 °F 12.2 °F 47% 30.21 in 10.0 mi NNW 11.5 mph 17.3 mph N/A   Clear
8:15 PM 30.2 °F 21.3 °F 10.4 °F 44% 30.22 in 10.0 mi NW 10.4 mph 19.6 mph N/A   Clear
8:35 PM 28.4 °F 19.1 °F 10.4 °F 47% 30.23 in 10.0 mi NW 10.4 mph 17.3 mph N/A   Clear
8:55 PM 28.4 °F 18.5 °F 10.4 °F 47% 30.23 in 10.0 mi NW 11.5 mph 17.3 mph N/A   Clear
9:15 PM 28.4 °F 19.7 °F 10.4 °F 47% 30.24 in 10.0 mi NW 9.2 mph - N/A   Clear
9:35 PM 28.4 °F 20.4 °F 10.4 °F 47% 30.26 in 10.0 mi NNW 8.1 mph - N/A   Clear
9:55 PM 26.6 °F 17.5 °F 10.4 °F 51% 30.26 in 10.0 mi NNW 9.2 mph - N/A   Clear
10:15 PM 26.6 °F 18.2 °F 10.4 °F 51% 30.27 in 10.0 mi NW 8.1 mph - N/A   Clear
10:35 PM 26.6 °F 19.1 °F 10.4 °F 51% 30.27 in 10.0 mi NW 6.9 mph - N/A   Clear
10:55 PM 26.6 °F 17.5 °F 10.4 °F 51% 30.27 in 10.0 mi NW 9.2 mph - N/A   Clear
11:15 PM 26.6 °F 16.2 °F 10.4 °F 51% 30.27 in 10.0 mi NW 11.5 mph - N/A   Clear
11:35 PM 26.6 °F 18.2 °F 10.4 °F 51% 30.27 in 10.0 mi NW 8.1 mph 16.1 mph N/A   Clear
11:55 PM 26.6 °F 16.2 °F 10.4 °F 51% 30.26 in 10.0 mi NNW 11.5 mph - N/A   Clear